QPF
0.05 0.06 0.06 0.07 0.08 0.08 0.09 0.10 0.09 0.07 0.07 0.06 0.04 0.02 0.02 0.01 0.02 0.01 0.01 0.01 0.01 0.01 0.02 0.02 0.03 0.02 0.01 0.02 0.02 0.02 0.02 0.02 0.02 0.02 0.03 0.04 0.03 0.03
0.06 0.07 0.07 0.06 0.06 0.06 0.07 0.09 0.08 0.07 0.05 0.04 0.03 0.02 0.03 0.02 0.03 0.02 0.02 0.02 0.01 0.01 0.01 0.01 0.01 0.01 0.01 0.01 0.01 0.01 0.01 0.02 0.01 0.01 0.02 0.02 0.02 0.02
0.06 0.07 0.08 0.09 0.09 0.10 0.10 0.09 0.08 0.07 0.06 0.04 0.05 0.03 0.03 0.04 0.03 0.03 0.02 0.01 0.01 0.01 0.02 0.02 0.02 0.01 0.01 0.01 0.01 0.01 0.01 0.01 0.01 0.01 0.01 0.01 0.01 0.01
0.08 0.08 0.09 0.12 0.14 0.15 0.15 0.12 0.10 0.08 0.07 0.05 0.04 0.04 0.04 0.05 0.04 0.03 0.01 0.01 0.01 0.01 0.01 0.02 0.02 0.02 0.01 0.01 0.01 0.01 0.01 0.01 0.01 0.01 0.01 0.01 0.01 0.01
0.09 0.10 0.09 0.12 0.11 0.10 0.09 0.09 0.07 0.07 0.08 0.06 0.05 0.05 0.03 0.03 0.03 0.03 0.02 0.02 0.01 0.02 0.01 0.02 0.02 0.02 0.01 0.01 0.01 0.01 0.01 0.00 0.00 0.01 0.01 0.01 0.01 0.01
0.04 0.04 0.05 0.07 0.07 0.08 0.08 0.08 0.09 0.08 0.08 0.07 0.05 0.05 0.04 0.04 0.04 0.03 0.03 0.03 0.02 0.01 0.01 0.01 0.01 0.02 0.02 0.01 0.01 0.01 0.02 0.02 0.01 0.01 0.01 0.01 0.02 0.03
0.03 0.03 0.03 0.04 0.05 0.05 0.04 0.06 0.07 0.07 0.08 0.07 0.06 0.06 0.06 0.06 0.05 0.05 0.04 0.03 0.02 0.01 0.02 0.02 0.03 0.03 0.03 0.02 0.02 0.02 0.02 0.03 0.03 0.02 0.02 0.02 0.02 0.03
0.03 0.04 0.04 0.03 0.03 0.03 0.03 0.04 0.05 0.05 0.06 0.06 0.05 0.05 0.05 0.06 0.06 0.04 0.03 0.03 0.02 0.02 0.03 0.02 0.03 0.03 0.03 0.02 0.03 0.03 0.03 0.03 0.03 0.03 0.03 0.03 0.02 0.02
0.03 0.04 0.04 0.03 0.02 0.02 0.03 0.03 0.04 0.04 0.05 0.06 0.05 0.05 0.06 0.06 0.06 0.05 0.04 0.03 0.03 0.04 0.04 0.04 0.04 0.03 0.03 0.03 0.03 0.03 0.03 0.04 0.04 0.04 0.04 0.03 0.04 0.04
0.03 0.04 0.05 0.05 0.03 0.03 0.02 0.02 0.02 0.02 0.03 0.03 0.03 0.03 0.04 0.05 0.05 0.04 0.05 0.04 0.04 0.04 0.04 0.04 0.04 0.03 0.03 0.04 0.03 0.03 0.04 0.04 0.04 0.04 0.03 0.03 0.04 0.05
0.03 0.03 0.04 0.04 0.03 0.03 0.03 0.02 0.02 0.02 0.02 0.02 0.02 0.02 0.02 0.03 0.04 0.04 0.04 0.05 0.05 0.04 0.04 0.03 0.02 0.03 0.03 0.04 0.03 0.04 0.04 0.06 0.06 0.07 0.06 0.06 0.06 0.06
0.03 0.04 0.05 0.05 0.05 0.05 0.04 0.03 0.03 0.02 0.03 0.03 0.03 0.02 0.02 0.03 0.05 0.05 0.05 0.05 0.05 0.05 0.04 0.04 0.04 0.04 0.04 0.04 0.04 0.05 0.06 0.07 0.08 0.07 0.07 0.08 0.08 0.07
0.02 0.02 0.03 0.04 0.06 0.06 0.05 0.03 0.03 0.03 0.05 0.04 0.04 0.03 0.03 0.03 0.03 0.04 0.05 0.05 0.06 0.07 0.05 0.05 0.04 0.04 0.04 0.04 0.04 0.04 0.05 0.05 0.04 0.04 0.04 0.05 0.06 0.05
0.03 0.03 0.03 0.04 0.04 0.06 0.06 0.05 0.04 0.04 0.04 0.03 0.03 0.03 0.03 0.02 0.02 0.03 0.04 0.06 0.06 0.07 0.06 0.05 0.05 0.05 0.05 0.05 0.04 0.03 0.03 0.03 0.03 0.03 0.03 0.04 0.04 0.04
0.03 0.04 0.04 0.03 0.03 0.03 0.04 0.06 0.07 0.07 0.05 0.04 0.03 0.03 0.03 0.03 0.03 0.03 0.03 0.05 0.06 0.06 0.05 0.05 0.05 0.06 0.05 0.04 0.04 0.03 0.04 0.03 0.03 0.02 0.03 0.03 0.04 0.04
0.02 0.03 0.04 0.04 0.04 0.02 0.02 0.03 0.03 0.03 0.04 0.05 0.05 0.04 0.04 0.03 0.02 0.02 0.03 0.04 0.06 0.07 0.06 0.07 0.07 0.07 0.07 0.06 0.05 0.05 0.04 0.03 0.02 0.02 0.03 0.03 0.03 0.04
0.02 0.02 0.03 0.04 0.04 0.03 0.02 0.03 0.04 0.04 0.03 0.03 0.03 0.03 0.03 0.03 0.03 0.03 0.04 0.04 0.04 0.05 0.07 0.08 0.10 0.10 0.10 0.09 0.08 0.07 0.06 0.05 0.04 0.04 0.04 0.04 0.04 0.04
0.04 0.03 0.04 0.04 0.04 0.03 0.03 0.03 0.04 0.04 0.04 0.04 0.03 0.03 0.03 0.03 0.03 0.03 0.04 0.05 0.05 0.05 0.05 0.06 0.06 0.08 0.09 0.09 0.08 0.06 0.06 0.06 0.06 0.07 0.07 0.07 0.06 0.05
0.03 0.04 0.04 0.04 0.04 0.04 0.04 0.04 0.04 0.04 0.05 0.05 0.05 0.04 0.03 0.03 0.04 0.04 0.04 0.04 0.04 0.05 0.05 0.05 0.05 0.05 0.06 0.06 0.06 0.05 0.04 0.05 0.06 0.08 0.09 0.09 0.08 0.08
0.03 0.04 0.04 0.03 0.04 0.04 0.04 0.03 0.03 0.03 0.04 0.04 0.04 0.04 0.03 0.03 0.04 0.04 0.04 0.04 0.04 0.04 0.05 0.05 0.05 0.05 0.05 0.05 0.05 0.05 0.05 0.06 0.06 0.07 0.08 0.08 0.08 0.08
0.04 0.04 0.03 0.03 0.03 0.03 0.03 0.03 0.03 0.04 0.04 0.05 0.05 0.04 0.04 0.05 0.05 0.04 0.04 0.04 0.04 0.04 0.05 0.05 0.05 0.04 0.04 0.05 0.06 0.06 0.07 0.08 0.08 0.08 0.08 0.09 0.08 0.06
0.04 0.04 0.04 0.03 0.03 0.03 0.03 0.04 0.05 0.05 0.05 0.05 0.05 0.05 0.05 0.06 0.06 0.06 0.05 0.05 0.04 0.04 0.04 0.04 0.03 0.03 0.03 0.04 0.05 0.06 0.07 0.08 0.08 0.09 0.08 0.08 0.09 0.09
0.03 0.03 0.03 0.03 0.03 0.04 0.04 0.05 0.05 0.06 0.05 0.05 0.05 0.04 0.04 0.05 0.05 0.05 0.05 0.04 0.04 0.03 0.03 0.03 0.03 0.03 0.03 0.03 0.04 0.04 0.05 0.07 0.08 0.09 0.09 0.08 0.08 0.08
MSLP
1015.17 1015.25 1015.36 1015.48 1015.57 1015.60 1015.54 1015.37 1015.09 1014.74 1014.32 1013.90 1013.50 1013.16 1012.90 1012.74 1012.66 1012.64 1012.67 1012.71 1012.73 1012.71 1012.65 1012.53 1012.35 1012.13 1011.87 1011.60 1011.32 1011.04 1010.77 1010.53 1010.32 1010.15 1010.03 1009.98 1009.99 1010.07
1014.93 1015.00 1015.11 1015.23 1015.34 1015.39 1015.37 1015.26 1015.06 1014.78 1014.44 1014.08 1013.73 1013.41 1013.16 1012.97 1012.84 1012.75 1012.70 1012.64 1012.57 1012.48 1012.34 1012.17 1011.97 1011.74 1011.48 1011.22 1010.95 1010.67 1010.40 1010.13 1009.88 1009.65 1009.45 1009.30 1009.20 1009.18
1014.80 1014.83 1014.92 1015.02 1015.13 1015.20 1015.21 1015.15 1015.02 1014.82 1014.56 1014.28 1013.98 1013.71 1013.46 1013.25 1013.07 1012.91 1012.75 1012.59 1012.42 1012.22 1012.01 1011.78 1011.55 1011.31 1011.08 1010.84 1010.61 1010.37 1010.12 1009.86 1009.59 1009.32 1009.05 1008.82 1008.62 1008.49
1014.78 1014.78 1014.83 1014.90 1014.99 1015.06 1015.10 1015.08 1015.01 1014.87 1014.70 1014.49 1014.26 1014.02 1013.79 1013.56 1013.32 1013.08 1012.83 1012.56 1012.27 1011.98 1011.68 1011.39 1011.12 1010.88 1010.66 1010.46 1010.27 1010.08 1009.87 1009.64 1009.37 1009.08 1008.78 1008.47 1008.20 1007.96
1014.89 1014.85 1014.86 1014.91 1014.97 1015.03 1015.07 1015.07 1015.04 1014.96 1014.85 1014.70 1014.53 1014.33 1014.10 1013.86 1013.58 1013.27 1012.93 1012.56 1012.16 1011.77 1011.39 1011.03 1010.72 1010.47 1010.25 1010.08 1009.93 1009.77 1009.60 1009.40 1009.15 1008.85 1008.52 1008.18 1007.83 1007.52
1015.09 1015.03 1015.01 1015.03 1015.06 1015.10 1015.14 1015.15 1015.14 1015.09 1015.02 1014.92 1014.78 1014.60 1014.39 1014.13 1013.82 1013.45 1013.04 1012.59 1012.11 1011.63 1011.17 1010.76 1010.40 1010.11 1009.88 1009.71 1009.56 1009.43 1009.27 1009.08 1008.83 1008.54 1008.19 1007.82 1007.43 1007.06
1015.34 1015.27 1015.24 1015.24 1015.25 1015.28 1015.30 1015.30 1015.29 1015.26 1015.20 1015.11 1014.99 1014.82 1014.61 1014.34 1014.01 1013.62 1013.16 1012.66 1012.12 1011.58 1011.07 1010.59 1010.18 1009.84 1009.57 1009.36 1009.18 1009.02 1008.84 1008.63 1008.37 1008.06 1007.70 1007.30 1006.89 1006.49
1015.56 1015.51 1015.49 1015.49 1015.50 1015.51 1015.51 1015.50 1015.47 1015.42 1015.35 1015.26 1015.13 1014.96 1014.75 1014.48 1014.14 1013.73 1013.27 1012.74 1012.18 1011.61 1011.05 1010.53 1010.06 1009.65 1009.31 1009.02 1008.77 1008.54 1008.30 1008.03 1007.73 1007.38 1007.00 1006.59 1006.17 1005.75
1015.68 1015.68 1015.69 1015.71 1015.73 1015.73 1015.72 1015.69 1015.64 1015.56 1015.45 1015.33 1015.18 1015.00 1014.77 1014.50 1014.17 1013.78 1013.33 1012.82 1012.26 1011.68 1011.10 1010.54 1010.01 1009.53 1009.10 1008.71 1008.35 1008.01 1007.67 1007.32 1006.94 1006.54 1006.12 1005.69 1005.26 1004.84
1015.66 1015.71 1015.77 1015.83 1015.87 1015.89 1015.87 1015.82 1015.73 1015.60 1015.46 1015.29 1015.10 1014.90 1014.66 1014.40 1014.08 1013.72 1013.30 1012.83 1012.30 1011.75 1011.16 1010.58 1010.00 1009.44 1008.91 1008.40 1007.92 1007.45 1006.98 1006.52 1006.06 1005.59 1005.12 1004.66 1004.22 1003.80
1015.47 1015.59 1015.70 1015.81 1015.89 1015.91 1015.89 1015.82 1015.69 1015.53 1015.33 1015.12 1014.89 1014.66 1014.41 1014.15 1013.86 1013.53 1013.16 1012.74 1012.26 1011.73 1011.17 1010.57 1009.95 1009.33 1008.70 1008.09 1007.48 1006.88 1006.30 1005.73 1005.17 1004.63 1004.11 1003.62 1003.17 1002.74
1015.14 1015.31 1015.48 1015.63 1015.73 1015.78 1015.75 1015.66 1015.50 1015.30 1015.06 1014.80 1014.54 1014.27 1014.02 1013.76 1013.50 1013.21 1012.89 1012.52 1012.09 1011.60 1011.06 1010.46 1009.82 1009.15 1008.46 1007.75 1007.04 1006.34 1005.66 1005.00 1004.36 1003.76 1003.20 1002.68 1002.20 1001.76
1014.71 1014.92 1015.12 1015.30 1015.42 1015.47 1015.44 1015.33 1015.15 1014.91 1014.64 1014.35 1014.05 1013.77 1013.51 1013.26 1013.01 1012.76 1012.48 1012.16 1011.78 1011.33 1010.81 1010.23 1009.58 1008.88 1008.14 1007.38 1006.61 1005.85 1005.10 1004.38 1003.69 1003.05 1002.45 1001.90 1001.39 1000.92
1014.26 1014.47 1014.68 1014.85 1014.97 1015.01 1014.97 1014.85 1014.65 1014.39 1014.09 1013.78 1013.47 1013.18 1012.91 1012.67 1012.45 1012.22 1011.97 1011.68 1011.33 1010.91 1010.42 1009.85 1009.21 1008.51 1007.76 1006.98 1006.19 1005.41 1004.64 1003.89 1003.19 1002.52 1001.89 1001.31 1000.77 1000.26
1013.83 1014.02 1014.19 1014.34 1014.43 1014.44 1014.38 1014.23 1014.02 1013.74 1013.44 1013.12 1012.82 1012.53 1012.28 1012.05 1011.84 1011.62 1011.39 1011.12 1010.79 1010.39 1009.91 1009.36 1008.73 1008.05 1007.32 1006.56 1005.78 1005.01 1004.25 1003.52 1002.81 1002.13 1001.49 1000.87 1000.28 999.71
1013.45 1013.58 1013.70 1013.79 1013.82 1013.80 1013.70 1013.53 1013.30 1013.03 1012.73 1012.43 1012.14 1011.88 1011.64 1011.42 1011.22 1011.02 1010.79 1010.53 1010.20 1009.81 1009.34 1008.80 1008.19 1007.53 1006.84 1006.11 1005.38 1004.65 1003.93 1003.22 1002.52 1001.84 1001.16 1000.49 999.83 999.18
1013.12 1013.18 1013.22 1013.23 1013.20 1013.11 1012.98 1012.78 1012.55 1012.28 1012.01 1011.73 1011.47 1011.24 1011.02 1010.83 1010.64 1010.44 1010.22 1009.94 1009.61 1009.22 1008.75 1008.22 1007.63 1007.00 1006.35 1005.67 1004.99 1004.30 1003.62 1002.93 1002.24 1001.53 1000.81 1000.08 999.32 998.57
1012.80 1012.78 1012.73 1012.67 1012.56 1012.42 1012.24 1012.03 1011.79 1011.54 1011.29 1011.05 1010.83 1010.63 1010.45 1010.28 1010.11 1009.92 1009.69 1009.41 1009.07 1008.66 1008.20 1007.67 1007.11 1006.51 1005.88 1005.25 1004.61 1003.96 1003.30 1002.61 1001.90 1001.15 1000.36 999.53 998.66 997.77
1012.44 1012.34 1012.23 1012.09 1011.93 1011.74 1011.53 1011.30 1011.06 1010.83 1010.60 1010.40 1010.22 1010.06 1009.92 1009.77 1009.62 1009.43 1009.21 1008.93 1008.58 1008.17 1007.71 1007.19 1006.64 1006.07 1005.47 1004.86 1004.24 1003.61 1002.94 1002.24 1001.48 1000.66 999.77 998.81 997.81 996.77
1011.97 1011.83 1011.67 1011.49 1011.29 1011.06 1010.83 1010.60 1010.37 1010.15 1009.96 1009.79 1009.65 1009.52 1009.41 1009.29 1009.15 1008.98 1008.76 1008.49 1008.15 1007.75 1007.29 1006.79 1006.26 1005.70 1005.12 1004.52 1003.90 1003.25 1002.56 1001.81 1000.98 1000.06 999.05 997.97 996.82 995.64
1011.38 1011.23 1011.05 1010.85 1010.64 1010.41 1010.18 1009.95 1009.73 1009.53 1009.36 1009.22 1009.10 1009.00 1008.91 1008.81 1008.69 1008.54 1008.33 1008.07 1007.75 1007.37 1006.94 1006.46 1005.94 1005.39 1004.82 1004.22 1003.59 1002.91 1002.17 1001.35 1000.43 999.41 998.29 997.08 995.80 994.49
1010.66 1010.53 1010.38 1010.20 1010.00 1009.79 1009.57 1009.36 1009.16 1008.98 1008.82 1008.69 1008.59 1008.50 1008.42 1008.33 1008.22 1008.09 1007.90 1007.67 1007.38 1007.03 1006.62 1006.17 1005.68 1005.15 1004.58 1003.97 1003.32 1002.60 1001.80 1000.91 999.91 998.80 997.59 996.28 994.90 993.50
1009.88 1009.80 1009.69 1009.56 1009.41 1009.23 1009.05 1008.86 1008.68 1008.51 1008.36 1008.23 1008.12 1008.03 1007.95 1007.86 1007.76 1007.64 1007.48 1007.27 1007.02 1006.71 1006.34 1005.92 1005.46 1004.95 1004.39 1003.77 1003.09 1002.34 1001.50 1000.55 999.50 998.33 997.05 995.69 994.27 992.84
Thickness
5759 5758 5757 5759 5758 5757 5756 5752 5745 5742 5745 5749 5751 5753 5751 5750 5747 5746 5745 5742 5740 5738 5737 5735 5734 5732 5731 5730 5729 5729 5728 5726 5725 5724 5722 5721 5720 5719
5756 5755 5754 5757 5756 5755 5753 5751 5749 5745 5743 5749 5747 5748 5746 5746 5743 5742 5741 5739 5738 5736 5734 5732 5731 5729 5728 5727 5725 5724 5723 5722 5721 5719 5718 5717 5716 5715
5752 5752 5751 5751 5751 5750 5750 5748 5746 5744 5740 5744 5745 5743 5739 5739 5738 5738 5738 5737 5737 5734 5731 5729 5728 5726 5724 5723 5722 5720 5719 5718 5717 5715 5714 5713 5712 5710
5748 5747 5746 5746 5744 5745 5744 5744 5742 5740 5737 5734 5736 5737 5735 5734 5733 5732 5735 5736 5734 5731 5728 5726 5724 5722 5720 5719 5717 5715 5714 5712 5711 5710 5709 5708 5707 5705
5744 5743 5741 5740 5738 5739 5738 5738 5739 5739 5735 5732 5732 5731 5731 5731 5728 5728 5729 5728 5729 5728 5725 5723 5720 5718 5716 5715 5713 5711 5709 5707 5705 5704 5703 5702 5701 5700
5741 5739 5737 5736 5733 5733 5732 5731 5731 5731 5730 5728 5727 5726 5725 5725 5721 5720 5721 5721 5722 5723 5721 5719 5716 5714 5712 5710 5708 5706 5704 5702 5700 5698 5697 5696 5696 5695
5736 5735 5734 5732 5730 5729 5729 5727 5725 5724 5724 5722 5721 5720 5718 5716 5714 5715 5714 5714 5714 5716 5715 5714 5713 5711 5709 5706 5703 5700 5698 5696 5695 5693 5691 5690 5689 5688
5729 5729 5728 5726 5724 5721 5720 5719 5717 5717 5717 5716 5716 5713 5711 5711 5709 5708 5707 5705 5704 5709 5706 5706 5707 5706 5705 5703 5698 5695 5692 5690 5688 5686 5684 5683 5682 5681
5722 5721 5723 5723 5718 5717 5713 5710 5710 5708 5708 5708 5708 5707 5706 5706 5702 5700 5698 5697 5697 5699 5697 5697 5699 5698 5698 5696 5692 5688 5685 5683 5681 5679 5677 5675 5674 5673
5716 5715 5713 5711 5711 5708 5708 5706 5706 5704 5702 5700 5700 5700 5699 5697 5694 5693 5692 5691 5691 5692 5690 5688 5691 5690 5690 5688 5684 5681 5678 5676 5674 5671 5669 5667 5666 5664
5709 5708 5706 5704 5699 5698 5698 5697 5697 5696 5695 5692 5690 5689 5688 5686 5684 5684 5684 5682 5682 5684 5684 5681 5682 5681 5680 5679 5676 5673 5670 5668 5666 5664 5661 5659 5657 5655
5702 5701 5697 5694 5690 5688 5689 5689 5687 5688 5687 5684 5681 5680 5680 5678 5675 5674 5675 5674 5674 5674 5676 5672 5672 5671 5669 5670 5668 5664 5662 5659 5657 5655 5653 5651 5648 5647
5694 5693 5691 5684 5680 5679 5678 5680 5679 5677 5677 5675 5675 5675 5673 5671 5670 5668 5666 5664 5663 5664 5665 5661 5661 5659 5657 5657 5657 5655 5653 5652 5649 5647 5644 5643 5640 5638
5684 5684 5682 5675 5672 5670 5670 5670 5668 5666 5669 5669 5667 5666 5665 5663 5662 5660 5657 5655 5653 5653 5652 5650 5649 5647 5645 5645 5645 5646 5644 5643 5641 5640 5638 5635 5632 5630
5674 5671 5668 5665 5663 5663 5662 5660 5658 5660 5661 5660 5658 5657 5657 5655 5653 5650 5648 5645 5643 5643 5643 5640 5639 5638 5635 5634 5635 5635 5634 5633 5632 5631 5629 5628 5626 5624
5662 5659 5656 5654 5654 5654 5654 5653 5653 5653 5653 5651 5649 5649 5648 5646 5643 5642 5639 5637 5635 5634 5633 5630 5628 5626 5625 5625 5625 5625 5625 5624 5624 5622 5620 5620 5619 5618
5651 5651 5651 5650 5649 5649 5648 5648 5646 5645 5642 5641 5640 5639 5637 5636 5634 5633 5629 5627 5625 5624 5623 5622 5620 5617 5616 5615 5616 5616 5615 5615 5615 5613 5610 5611 5612 5611
5641 5643 5643 5642 5641 5641 5640 5638 5636 5634 5633 5631 5630 5628 5626 5625 5623 5622 5620 5617 5615 5616 5615 5613 5611 5610 5608 5609 5606 5606 5606 5606 5606 5604 5602 5602 5603 5603
5632 5634 5634 5633 5632 5631 5629 5628 5625 5624 5622 5620 5619 5618 5616 5614 5613 5611 5610 5608 5607 5607 5605 5604 5603 5601 5599 5599 5600 5596 5596 5596 5596 5596 5594 5593 5593 5593
5624 5624 5623 5622 5621 5619 5618 5617 5615 5613 5610 5609 5608 5606 5605 5604 5603 5602 5601 5599 5598 5597 5596 5595 5594 5592 5590 5589 5589 5589 5587 5587 5587 5586 5586 5585 5584 5583
5615 5614 5612 5611 5609 5608 5606 5605 5603 5602 5600 5599 5597 5596 5595 5594 5593 5593 5592 5589 5587 5588 5587 5586 5585 5582 5581 5581 5581 5581 5581 5578 5578 5577 5577 5576 5575 5575
5605 5604 5602 5600 5598 5597 5596 5594 5593 5592 5590 5589 5588 5587 5585 5584 5583 5583 5583 5582 5581 5580 5580 5579 5578 5576 5574 5573 5573 5574 5573 5572 5571 5570 5568 5568 5568 5567
5595 5594 5593 5592 5591 5589 5588 5586 5584 5584 5582 5580 5579 5577 5576 5575 5575 5574 5574 5573 5572 5571 5571 5570 5570 5568 5567 5566 5566 5566 5566 5565 5565 5564 5563 5561 5559 5558